Погода в Калараше

Молдова     47°15′11″N   28°18′56″E
В апреле 2022 года жителям России запретили посещать сайт meteo.paraplan.net по решению Генеральной прокуратуры. Аудитория сайта уменьшилась в 10 раз. Владельцы сайта не видят смысла в поддержке погодного сервера в таких условиях. Сайт будет закрыт в октябре.
темп.,
°C
ветер,
м/с
пор.,
м/с
влажн.,
%
обл.,
%
осадки,
мм/ч
давл.,
гПа
погр.,
м
5 октября, ср
ср500:00+11зсз41068100 0.0 1023542
03:00+11зсз5116980 0.0 1024585
06:00+11сз41166100 0.0 1025602
09:00+12зсз3859100 0.0 1027454
12:00+15сз5643100 0.0 10271626
15:00+17зсз4538100 0.0 10271576
18:00+15зсз2245100 0.0 102713
21:00+12юв1152100 0.0 102810
6 октября, чт
чт600:00+11ю2254100 0.0 102811
03:00+10ю2257100 0.0 102814
06:00+10ююв1157100 0.0 102711
09:00+13ю1251100 0.0 1027100
12:00+18ююз3336100 0.0 1027579
15:00+21юз2228100 0.0 1026955
18:00+18зюз113673 0.0 102611
21:00+14зсз114378 0.0 102710
7 октября, пт
пт700:00+13сз3349100 0.0 102920
03:00+12сз346181 0.0 102947
06:00+10сз348061 0.0 102963
09:00+13ссз377795 0.0 1029269
12:00+18ссв5761100 0.0 1029886
15:00+20ссв554466 0.0 10271408
18:00+17ссв4651100 0.0 1027176
21:00+13св225954 0.0 102711
8 октября, сб
сб800:00+11св116079 0.0 102710
03:00+10всв11650 0.0 102610
06:00+8в11735 0.0 102510
09:00+12в12635 0.0 1024132
12:00+17вюв234835 0.0 1023852
15:00+20юв224030 0.0 10201308
18:00+17вюв225118 0.0 101915
21:00+14вюв226581 0.0 102010
9 октября, вс
вс900:00+12вюв127164 0.0 102010
03:00+12юв1176100 0.0 101910
06:00+12сз2275100 0.0 102010
09:00+14сз4862100 0.0 1021348
12:00+16с81166100 0.0 1023934
15:00+17с710536 0.0 10241237
18:00+16с48470 0.0 1024242
21:00+11ссз33610 0.0 102740